Regional Weather Roundup
Issued by NWS

Home | Current Version | Previous Version | Graphics & Text | Print | Product List | Glossary On
Versions: 1 2 3 4 5 6 7 8 9 10 11 12 13 14 15 16 17 18 19 20 21 22 23 24 25 26 27 28 29 30 31 32 33 34 35 36 37 38 39 40 41 42 43 44 45 46 47 48 49 50
000
ASUS43 KMKX 200521
RWRWI

WISCONSIN REGIONAL WEATHER ROUNDUP
NATIONAL WEATHER SERVICE MILWAUKEE/SULLIVAN WI
1100 PM CST SUN FEB 19 2017

NOTE: "FAIR" INDICATES FEW OR NO CLOUDS BELOW 12,000 FEET WITH NO
SIGNIFICANT WEATHER AND/OR OBSTRUCTIONS TO VISIBILITY.

WIZ001-002-006>008-014>016-023>028-200600-
NORTHWEST WISCONSIN

CITY           SKY/WX    TMP DP  RH WIND       PRES   REMARKS
SUPERIOR ARPT  CLOUDY    35  33  93 NE12      29.97F WCI  26
ASHLAND        MOCLDY    34  31  88 N6        29.99S WCI  29
HAYWARD        CLOUDY    50  31  48 SE10      29.96R
SIREN          CLOUDY    50  33  50 SE10      29.90F
CUMBERLAND     CLOUDY    43  32  65 SE5       29.94R
RICE LAKE      CLOUDY    46  32  58 CALM      29.96S
CHETEK         CLOUDY    46  33  61 SE10      29.95F
LADYSMITH      CLOUDY    48  34  58 SE9       30.00S
EAU CLAIRE     CLOUDY    50  35  56 SE9       29.95F
MENOMONIE      CLOUDY    44  35  68 SE7       29.94S
NEW RICHMOND   MOCLDY    47  35  62 SE7       29.91S
OSCEOLA        PTCLDY    49  36  60 SE8       29.92F
$$

WIZ003>005-009-010-017-018-200600-
NORTH CENTRAL WISCONSIN

CITY           SKY/WX    TMP DP  RH WIND       PRES   REMARKS
MANITOWISH WTR PTCLDY    43  30  59 SE5       30.03S
ARBOR VITAE    PTCLDY    44  32  62 SE8       30.04S
WOODRUFF       PTCLDY    44  32  62 SE8       30.04S
RHINELANDER    CLOUDY    39  31  72 E9        30.07R WCI  33
EAGLE RIVER    CLOUDY    39  29  65 SE5       30.07R
LAND O LAKES   PTCLDY    40  31  68 SE7       30.08S
PHILLIPS       CLOUDY    44  33  64 SE6       30.01R
TOMAHAWK       CLOUDY    41  31  66 CALM      30.06R
MEDFORD        MOCLDY    44  33  65 SE7       30.03S
MERRILL        NOT AVBL
$$

WIZ029-030-035-036-043>047-200600-
CENTRAL WISCONSIN

CITY           SKY/WX    TMP DP  RH WIND       PRES   REMARKS
WAUSAU         PTCLDY    41  33  73 E8        30.06R
MOSINEE        PTCLDY    43  32  65 E9        30.07S
MARSHFIELD     PTCLDY    44  33  65 E8        30.03S
STEVENS POINT  MOCLDY    39  32  76 E7        30.07S WCI  34
WAUPACA        CLOUDY    39  31  73 CALM      30.11R
WAUTOMA        CLOUDY    41  33  73 E5        30.09R
WISC RAPIDS    PTCLDY    44  35  70 E8        30.06S
CAMP DOUGLAS   CLOUDY    39  34  81 E8        30.03S WCI  33
$$

WIZ011>013-019>022-031-037>040-048>050-200600-
NORTHEAST WISCONSIN

CITY           SKY/WX    TMP DP  RH WIND       PRES   REMARKS
ANTIGO         CLOUDY    35  31  85 SE7       30.09S WCI  29
SHAWANO        PTCLDY    35  31  87 NE3       30.13R
OCONTO         CLOUDY    28  26  94 CALM      30.14R
STURGEON BAY   CLOUDY    37  33  85 SE7       30.15R WCI  32
GREEN BAY      CLOUDY    36  32  85 E5        30.13R WCI  32
MANITOWOC      CLOUDY    32  29  88 MISG      30.14S
APPLETON       PTCLDY    37  28  70 E7        30.09S WCI  32
CLINTONVILLE   CLOUDY    36  30  80 E3        30.12R
OSHKOSH        CLOUDY    38  30  73 SE5       30.10R WCI  34
$$

WIZ032>034-041-042-053>061-200600-
SOUTHWEST WISCONSIN

CITY           SKY/WX    TMP DP  RH WIND       PRES   REMARKS
LA CROSSE      CLOUDY    51  37  58 SE7       29.98R
SPARTA         CLOUDY    49  37  65 CALM      30.01S
VIROQUA        CLOUDY    49  37  61 CALM      30.00S
BOSCOBEL       CLOUDY    48  36  63 CALM      30.01F
PRAIRIE DU CHI PTCLDY    51  36  55 E6        29.99S
PLATTEVILLE    CLOUDY    46  37  69 E10       30.02F
$$

WIZ056-057-062-063-064-067-068-200600-
SOUTH CENTRAL WISCONSIN

CITY           SKY/WX    TMP DP  RH WIND       PRES   REMARKS
REEDSBURG      CLOUDY    47  38  69 E3        30.04S
BARABOO/DELLS  CLOUDY    50  36  59 CALM      30.05S
LONE ROCK      CLOUDY    44  36  73 E8        30.04S
MINERAL POINT  CLOUDY    50  36  57 SE9       30.04R
MADISON        CLOUDY    47  34  60 SE3       30.06S
MIDDLETON      CLOUDY    41  36  84 CALM      30.07S
WATERTOWN      CLOUDY    41  32  70 E7        30.09S
MONROE         PTCLDY    48  37  66 SE10      30.05F
JANESVILLE     CLOUDY    43  32  65 E5        30.08S
$$

WIZ051-052-058>065-066-070>072-200600-
SOUTHEAST WISCONSIN

CITY           SKY/WX    TMP DP  RH WIND       PRES   REMARKS
MILWAUKEE      CLOUDY    39  32  76 CALM      30.13R
WAUKESHA         N/A     36  30  80 CALM      30.13R
MILWAUKEE/TIMM CLOUDY    36  30  80 CALM      30.13R
RACINE         CLOUDY    38  32  79 CALM      30.13S
KENOSHA        CLOUDY    35  31  85 E3        30.12R
FOND DU LAC    CLOUDY    39  29  67 SE10      30.10S WCI  32
SHEBOYGAN      CLOUDY    31  28  89 CALM      30.13R
WEST BEND      PTCLDY    32  30  93 CALM      30.12S
JUNEAU         CLOUDY    40  31  70 E9        30.10S WCI  34
$$

LSZ147-162-200600-
LAKE SUPERIOR

STATION/POSITION TIME  TEMP    WIND        PRES    WAVE
                       AIR SEA DIR/SP/G            HT/PER
                 (UTC) (F)     (DEG/KT/KT) (MB)    (FT/S)
DEVILS ISLAND    0500   36      80/ 12/ 13 1016.7F
PORT WING        0440   34      40/  8/ 12 1015.6R
SAXON HARBOR     0440   30     210/  1/  2 1015.6S
$$

LMZ867-665-643>646-200600-
LAKE MICHIGAN

STATION/POSITION TIME  TEMP    WIND        PRES    WAVE
                       AIR SEA DIR/SP/G            HT/PER
                 (UTC) (F)     (DEG/KT/KT) (MB)    (FT/S)
CHAMBERS ISLAND  0440   33      CALM  /  1 1020.3S
NORTHPORT PIER   0440   37     140/  4/  5 1021.3R
SISTER BAY       0435   39     130/  9/ 11   N/A
ALGOMA LAKESHORE 0425             CALM       N/A
KEWAUNEE LAKESHO 0454   35        CALM     1020.2R
SHEBOYGAN LAKESH 0500   39     260/  1/  1 1020.7R
PORT WASHINGTON  0430   37     310/  1/  2 1021.0S
MILWAUKEE LAKESH 0500   40      30/  3/  4   N/A
KENOSHA   LAKESH 0500   36        CALM     1020.0
$$

TC  - TEMPERATURE IN CELSIUS
VSB - VISIBILITY IN STATUTE MILES
WCI - WIND CHILL INDEX
HX  - HEAT INDEX




USA.gov is the U.S. government's official web portal to all federal, state and local government web resources and services.